Location: Davidschlag
(48.4333°N, 14.2833°E)
Time: 06:21:36
(UTC+00:00)

Gbstr 26 Del rocket - Pass Details

Date: 27 February 2020
Orbit: 493 x 1264 km, 51.8° (Epoch: 09 April)

Event Time Altitude Azimuth Distance (km) Brightness Sun altitude
Rises 18:55:16 0° 256° (WSW) 2,698 7.4 -22.6°
Reaches altitude 10° 18:57:19 10° 258° (WSW) 1,873 6.4 -23.0°
Maximum altitude 19:01:33 73° 344° (NNW) 676 3.2 -23.6°
Enters shadow 19:02:10 63° 38° (NE) 735 3.2 -23.7°
